Location: Bussy-Saint-Georges
(48.8410°N, 2.7017°E)
Time: 14:35:23
(UTC+00:00)

USA 215 - Pass Details

Date: 18 October 2021
Orbit: 1099 x 1109 km, 123.0° (Epoch: 20 November)

Event Time Altitude Azimuth Distance (km) Brightness Sun altitude
Exits shadow 20:00:39 43° 27° (NNE) 1,516 3.9 -31.1°
Maximum altitude 20:01:31 45° 6° (N) 1,471 3.9 -31.2°
Drops below altitude 10° 20:07:39 10° 297° (WNW) 2,967 6.4 -32.1°
Sets 20:10:14 0° 291° (WNW) 3,926 7.3 -32.5°
